Weather History for Roanoke, VA

Change the Weather History Date:

Saturday, January 26, 2013

  Actual Average Record
Temperature  
Mean Temperature 32 °F 37 °F  
Max Temperature 41 °F 46 °F 78 °F (1950)
Min Temperature 23 °F 28 °F 1 °F (1940)
Degree Days  
Heating Degree Days 33 28  
Month to date heating degree days 632 745  
Since 1 July heating degree days 2144 2355  
Cooling Degree Days 0 0  
Month to date cooling degree days 0 0  
Year to date cooling degree days 0 0  
Moisture  
Dew Point 20 °F    
Average Humidity 64    
Maximum Humidity 81    
Minimum Humidity 46    
Precipitation  
Precipitation 0.00 in 0.09 in 0.57 in (2011)
Month to date precipitation 4.46 2.44  
Year to date precipitation 4.46 2.44  
Snow  
Snow 0.00 in - - ()
Month to date snowfall 5.0  
Since 1 July snowfall 5.3  
Snow Depth 0.00 in    
Sea Level Pressure  
Sea Level Pressure 30.23 in    
Wind  
Wind Speed 10 mph (NW)    
Max Wind Speed 22 mph    
Max Gust Speed 30 mph    
Visibility 10 miles    
Events      
T = Trace of Precipitation, MM = Missing Value Source: NWS Daily Summary

Daily Weather History Graph

Daily Weather History Graph

Search for Another Location

Airport:

Trip Planner

Search our weather history database for the weather conditions in past years. The results will help you decide how hot, cold, wet, or windy it might be!

Date:

Astronomy

Jan. 26, 2013 Rise Set
Actual Time 7:27 AM EST 5:38 PM EST
Civil Twilight 6:59 AM EST 6:05 PM EST
Nautical Twilight 6:28 AM EST 6:37 PM EST
Astronomical Twilight 5:57 AM EST 7:08 PM EST
Moon 5:30 PM EST (1/26) 6:44 AM EST (1/26)
Length of Visible Light 11h 06m
Length of Day
10h 10m
Full, 100% of the Moon is Illuminated
Jan 26
Full
Jan 26
Full
Feb 3
Last Quarter
Feb 10
New
Feb 17
First Quarter

Hourly Weather History & Observations

Time (EST) Temp. Windchill Dew Point Humidity Pressure Visibility Wind Dir Wind Speed Gust Speed Precip Events Conditions
12:54 AM 24.1 °F - 19.0 °F 81% 30.08 in 8.0 mi Calm Calm - N/A   Mostly Cloudy
1:54 AM 28.0 °F 22.8 °F 21.0 °F 75% 30.07 in 10.0 mi West 4.6 mph - N/A   Scattered Clouds
2:54 AM 36.0 °F 27.1 °F 24.1 °F 62% 30.08 in 10.0 mi WNW 13.8 mph - N/A   Scattered Clouds
3:54 AM 35.1 °F 26.4 °F 23.0 °F 61% 30.09 in 10.0 mi NW 12.7 mph 20.7 mph N/A   Mostly Cloudy
4:54 AM 34.0 °F 24.6 °F 23.0 °F 64% 30.11 in 10.0 mi WNW 13.8 mph 21.9 mph N/A   Mostly Cloudy
5:54 AM 34.0 °F 25.0 °F 21.9 °F 61% 30.13 in 10.0 mi WNW 12.7 mph 24.2 mph N/A   Mostly Cloudy
6:54 AM 33.1 °F 26.1 °F 21.0 °F 61% 30.17 in 10.0 mi West 8.1 mph - N/A   Mostly Cloudy
7:54 AM 30.9 °F 25.2 °F 18.0 °F 59% 30.20 in 10.0 mi WNW 5.8 mph - N/A   Mostly Cloudy
8:54 AM 32.0 °F 24.2 °F 18.0 °F 56% 30.23 in 10.0 mi West 9.2 mph - N/A   Scattered Clouds
9:54 AM 36.0 °F 32.1 °F 19.0 °F 50% 30.24 in 10.0 mi NW 4.6 mph - N/A   Scattered Clouds
10:54 AM 37.0 °F 28.5 °F 19.9 °F 50% 30.26 in 10.0 mi West 13.8 mph - N/A   Mostly Cloudy
11:54 AM 37.9 °F 28.9 °F 21.0 °F 51% 30.24 in 10.0 mi NW 16.1 mph 24.2 mph N/A   Scattered Clouds
12:54 PM 37.9 °F 28.5 °F 21.9 °F 53% 30.23 in 10.0 mi NW 17.3 mph 25.3 mph N/A   Scattered Clouds
1:54 PM 41.0 °F 32.8 °F 23.0 °F 49% 30.21 in 10.0 mi NW 16.1 mph 23.0 mph N/A   Scattered Clouds
2:54 PM 39.9 °F 30.8 °F 21.9 °F 49% 30.21 in 10.0 mi NW 18.4 mph - N/A   Scattered Clouds
3:54 PM 39.0 °F 30.6 °F 21.9 °F 50% 30.25 in 10.0 mi NW 15.0 mph - N/A   Partly Cloudy
4:54 PM 37.0 °F 29.8 °F 21.0 °F 52% 30.27 in 10.0 mi NW 10.4 mph - N/A   Partly Cloudy
5:54 PM 34.0 °F 26.0 °F 19.9 °F 56% 30.30 in 10.0 mi NW 10.4 mph - N/A   Partly Cloudy
6:54 PM 32.0 °F 23.0 °F 19.0 °F 59% 30.33 in 10.0 mi NW 11.5 mph - N/A   Partly Cloudy
7:54 PM 30.9 °F 25.2 °F 18.0 °F 59% 30.35 in 10.0 mi NW 5.8 mph - N/A   Partly Cloudy
8:54 PM 30.0 °F 21.7 °F 18.0 °F 61% 30.39 in 10.0 mi NNW 9.2 mph - N/A   Scattered Clouds
9:54 PM 28.9 °F 20.4 °F 17.1 °F 61% 30.42 in 10.0 mi NNW 9.2 mph - N/A   Partly Cloudy
10:54 PM 28.0 °F 22.8 °F 17.1 °F 63% 30.44 in 10.0 mi NNW 4.6 mph - N/A   Clear
11:54 PM 27.0 °F 19.5 °F 17.1 °F 66% 30.45 in 10.0 mi North 6.9 mph - N/A   Clear